• în Republica Moldova
  • Lista ţărilor
  • Pe 7 zile
  • Temperatura apei
  • Hartă satelitară
  • Meteo pe hartă
  • Widget-uri
  • user-avatar
    Intrare

    Meteo pe oră la Perth

    Astăzi, 16 August, Miercuri

    Timp Temperatura Precipitaţii Vânt Presiune Umiditate
    00:00 +12°C° 0,2 mm 5 m/s 761 mmHg 84%
    01:00 +12°C° 0,2 mm 5 m/s 761 mmHg 85%
    02:00 +10°C° 0 mm 5 m/s 760 mmHg 87%
    03:00 +10°C° 0,3 mm 5 m/s 761 mmHg 87%
    04:00 +10°C° 0,3 mm 5 m/s 761 mmHg 87%
    05:00 +11°C° 0,3 mm 6 m/s 761 mmHg 87%
    06:00 +11°C° 0,1 mm 6 m/s 761 mmHg 85%
    07:00 +11°C° 0,1 mm 6 m/s 761 mmHg 84%
    08:00 +11°C° 0 mm 6 m/s 761 mmHg 82%
    09:00 +13°C° 0 mm 6 m/s 762 mmHg 76%
    10:00 +12°C° 0 mm 7 m/s 762 mmHg 69%
    11:00 +14°C° 0 mm 7 m/s 762 mmHg 62%
    12:00 +14°C° 0,1 mm 7 m/s 762 mmHg 61%
    13:00 +14°C° 0,1 mm 7 m/s 762 mmHg 60%
    14:00 +15°C° 0 mm 8 m/s 762 mmHg 59%
    15:00 +14°C° 0,1 mm 7 m/s 762 mmHg 61%
    16:00 +14°C° 0,1 mm 6 m/s 762 mmHg 64%
    17:00 +13°C° 0,1 mm 6 m/s 762 mmHg 66%
    18:00 +12°C° 0 mm 5 m/s 763 mmHg 70%
    19:00 +11°C° 0 mm 4 m/s 763 mmHg 74%
    20:00 +10°C° 0 mm 4 m/s 764 mmHg 78%
    21:00 +10°C° 0 mm 3 m/s 764 mmHg 78%
    22:00 +9°C° 0 mm 3 m/s 764 mmHg 79%
    23:00 +9°C° 0 mm 2 m/s 764 mmHg 80%

    Mâine, 17 August, Joi

    Timp Temperatura Precipitaţii Vânt Presiune Umiditate
    00:00 +9°C° 0 mm 2 m/s 764 mmHg 80%
    01:00 +9°C° 0 mm 2 m/s 764 mmHg 79%
    02:00 +9°C° 0 mm 2 m/s 764 mmHg 79%
    03:00 +10°C° 0,1 mm 2 m/s 763 mmHg 79%
    04:00 +10°C° 0,1 mm 2 m/s 763 mmHg 79%
    05:00 +10°C° 0,1 mm 2 m/s 763 mmHg 79%
    06:00 +10°C° 0,1 mm 2 m/s 763 mmHg 79%
    07:00 +10°C° 0,1 mm 3 m/s 764 mmHg 79%
    08:00 +11°C° 0,1 mm 3 m/s 764 mmHg 80%
    09:00 +11°C° 0,1 mm 3 m/s 764 mmHg 77%
    10:00 +12°C° 0,1 mm 3 m/s 764 mmHg 75%
    11:00 +13°C° 0,1 mm 4 m/s 764 mmHg 73%
    12:00 +13°C° 0,1 mm 4 m/s 763 mmHg 70%
    13:00 +14°C° 0,1 mm 4 m/s 763 mmHg 67%
    14:00 +15°C° 0,1 mm 5 m/s 762 mmHg 64%
    15:00 +14°C° 0,1 mm 4 m/s 762 mmHg 66%
    16:00 +14°C° 0,1 mm 4 m/s 762 mmHg 68%
    17:00 +14°C° 0,1 mm 4 m/s 762 mmHg 70%
    18:00 +13°C° 0,1 mm 4 m/s 762 mmHg 73%
    19:00 +12°C° 0,1 mm 3 m/s 762 mmHg 77%
    20:00 +11°C° 0,1 mm 3 m/s 763 mmHg 80%
    21:00 +10°C° 0 mm 3 m/s 763 mmHg 81%
    22:00 +10°C° 0 mm 3 m/s 763 mmHg 82%
    23:00 +10°C° 0 mm 3 m/s 763 mmHg 83%

    Poimâine, 18 August, Vineri

    Timp Temperatura Precipitaţii Vânt Presiune Umiditate
    00:00 +9°C° 0 mm 3 m/s 762 mmHg 84%
    01:00 +9°C° 0 mm 3 m/s 762 mmHg 84%
    02:00 +9°C° 0 mm 3 m/s 762 mmHg 85%
    03:00 +8°C° 0 mm 3 m/s 762 mmHg 86%
    04:00 +8°C° 0 mm 3 m/s 762 mmHg 86%
    05:00 +8°C° 0 mm 3 m/s 762 mmHg 86%
    06:00 +7°C° 0 mm 4 m/s 762 mmHg 84%
    07:00 +7°C° 0 mm 4 m/s 762 mmHg 82%
    08:00 +8°C° 0 mm 4 m/s 762 mmHg 80%
    09:00 +11°C° 0 mm 4 m/s 762 mmHg 71%
    10:00 +14°C° 0 mm 3 m/s 762 mmHg 62%
    11:00 +17°C° 0 mm 3 m/s 761 mmHg 54%
    12:00 +18°C° 0 mm 3 m/s 761 mmHg 51%
    13:00 +19°C° 0 mm 3 m/s 760 mmHg 49%
    14:00 +20°C° 0 mm 3 m/s 759 mmHg 47%
    15:00 +19°C° 0 mm 3 m/s 759 mmHg 52%
    16:00 +18°C° 0 mm 3 m/s 759 mmHg 58%
    17:00 +17°C° 0 mm 2 m/s 759 mmHg 63%
    18:00 +16°C° 0 mm 2 m/s 759 mmHg 69%
    19:00 +14°C° 0 mm 2 m/s 759 mmHg 75%
    20:00 +13°C° 0 mm 2 m/s 760 mmHg 82%
    21:00 +12°C° 0 mm 2 m/s 760 mmHg 83%
    22:00 +12°C° 0 mm 1 m/s 760 mmHg 85%
    23:00 +11°C° 0 mm 1 m/s 760 mmHg 86%

    19 August, Sâmbătă

    Timp Temperatura Precipitaţii Vânt Presiune Umiditate
    00:00 +11°C° 0 mm 1 m/s 760 mmHg 87%
    01:00 +10°C° 0 mm 1 m/s 759 mmHg 88%
    02:00 +9°C° 0 mm 2 m/s 759 mmHg 88%
    03:00 +9°C° 0,2 mm 2 m/s 759 mmHg 88%
    04:00 +10°C° 0,2 mm 1 m/s 759 mmHg 88%
    05:00 +10°C° 0,2 mm 1 m/s 758 mmHg 88%
    06:00 +9°C° 0,3 mm 2 m/s 759 mmHg 88%
    07:00 +10°C° 0,3 mm 2 m/s 759 mmHg 88%
    08:00 +10°C° 0,3 mm 2 m/s 760 mmHg 89%
    09:00 +13°C° 0,1 mm 2 m/s 760 mmHg 85%
    10:00 +14°C° 0,1 mm 2 m/s 760 mmHg 81%
    11:00 +15°C° 0,1 mm 2 m/s 760 mmHg 77%
    12:00 +16°C° 0,3 mm 2 m/s 760 mmHg 75%
    13:00 +16°C° 0,3 mm 3 m/s 759 mmHg 74%
    14:00 +17°C° 0,3 mm 3 m/s 759 mmHg 72%
    15:00 +15°C° 0,3 mm 4 m/s 760 mmHg 75%
    16:00 +15°C° 0,3 mm 5 m/s 760 mmHg 78%
    17:00 +14°C° 0,3 mm 5 m/s 761 mmHg 81%
    18:00 +13°C° 0 mm 5 m/s 762 mmHg 82%
    19:00 +12°C° 0 mm 5 m/s 763 mmHg 84%
    20:00 +10°C° 0 mm 5 m/s 764 mmHg 86%
    21:00 +9°C° 0 mm 5 m/s 765 mmHg 86%
    22:00 +8°C° 0 mm 5 m/s 765 mmHg 86%
    23:00 +8°C° 0 mm 5 m/s 766 mmHg 87%

    20 August, Duminică

    Timp Temperatura Precipitaţii Vânt Presiune Umiditate
    00:00 +7°C° 0 mm 5 m/s 766 mmHg 86%
    01:00 +7°C° 0 mm 5 m/s 766 mmHg 86%
    02:00 +6°C° 0 mm 4 m/s 767 mmHg 86%
    03:00 +6°C° 0 mm 4 m/s 767 mmHg 86%
    04:00 +5°C° 0 mm 4 m/s 767 mmHg 86%
    05:00 +5°C° 0 mm 4 m/s 767 mmHg 85%
    06:00 +6°C° 0 mm 4 m/s 768 mmHg 84%
    07:00 +6°C° 0 mm 4 m/s 769 mmHg 83%
    08:00 +6°C° 0 mm 4 m/s 769 mmHg 82%
    09:00 +8°C° 0 mm 4 m/s 769 mmHg 75%
    10:00 +11°C° 0 mm 4 m/s 769 mmHg 67%
    11:00 +13°C° 0 mm 4 m/s 769 mmHg 59%
    12:00 +14°C° 0 mm 4 m/s 769 mmHg 56%
    13:00 +16°C° 0 mm 3 m/s 768 mmHg 53%
    14:00 +17°C° 0 mm 3 m/s 768 mmHg 51%
    15:00 +17°C° 0 mm 3 m/s 768 mmHg 56%
    16:00 +16°C° 0 mm 3 m/s 768 mmHg 60%
    17:00 +16°C° 0 mm 3 m/s 768 mmHg 65%
    18:00 +13°C° 0 mm 3 m/s 768 mmHg 71%
    19:00 +12°C° 0 mm 3 m/s 768 mmHg 77%
    20:00 +10°C° 0 mm 3 m/s 769 mmHg 83%
    21:00 +10°C° 0 mm 3 m/s 769 mmHg 84%
    22:00 +9°C° 0 mm 3 m/s 769 mmHg 86%
    23:00 +9°C° 0 mm 3 m/s 769 mmHg 87%

    21 August, Luni

    Timp Temperatura Precipitaţii Vânt Presiune Umiditate
    00:00 +9°C° 0 mm 2 m/s 768 mmHg 88%
    01:00 +8°C° 0 mm 2 m/s 768 mmHg 89%
    02:00 +8°C° 0 mm 2 m/s 768 mmHg 89%
    03:00 +8°C° 0 mm 2 m/s 768 mmHg 90%
    04:00 +7°C° 0 mm 2 m/s 768 mmHg 90%
    05:00 +7°C° 0 mm 3 m/s 768 mmHg 91%
    06:00 +8°C° 0 mm 3 m/s 768 mmHg 89%
    07:00 +8°C° 0 mm 3 m/s 768 mmHg 87%
    08:00 +9°C° 0 mm 3 m/s 768 mmHg 86%
    09:00 +11°C° 0 mm 3 m/s 768 mmHg 77%
    10:00 +13°C° 0 mm 3 m/s 767 mmHg 69%
    11:00 +17°C° 0 mm 3 m/s 767 mmHg 60%
    12:00 +18°C° 0 mm 2 m/s 766 mmHg 56%
    13:00 +19°C° 0 mm 2 m/s 766 mmHg 53%
    14:00 +21°C° 0 mm 1 m/s 765 mmHg 49%
    15:00 +19°C° 0 mm 2 m/s 765 mmHg 54%
    16:00 +18°C° 0 mm 2 m/s 765 mmHg 59%
    17:00 +18°C° 0 mm 2 m/s 765 mmHg 64%
    18:00 +16°C° 0 mm 2 m/s 765 mmHg 69%
    19:00 +14°C° 0 mm 3 m/s 765 mmHg 75%
    20:00 +12°C° 0 mm 3 m/s 766 mmHg 81%
    21:00 +11°C° 0 mm 3 m/s 766 mmHg 83%
    22:00 +11°C° 0 mm 3 m/s 766 mmHg 85%
    23:00 +10°C° 0 mm 3 m/s 766 mmHg 87%
    Arată mai mult